Location: Observatoire de Paris
(48.8363°N, 2.3365°E)
Time: 14:31:23
(UTC+01:00)

Vanguard 1 Rocket - All Passes

Search period start: 04 August 2021 00:00
Search period end: 14 August 2021 00:00
Orbit: 650 x 4226 km, 34.3° (Epoch: 02 August)

Date Brightness Start Highest point End Pass type
(mag) Time Alt. Az. Time Alt. Az. Time Alt. Az.
04 Aug - 06:44:43 10° SSE 06:55:42 15° SE 07:05:04 10° ESE daylight
04 Aug - 09:04:38 10° SSW 09:23:38 33° SSE 09:35:58 10° E daylight
04 Aug - 11:33:41 10° WSW 11:51:12 42° S 12:00:55 10° ESE daylight
04 Aug - 14:05:15 10° WSW 14:16:46 31° SSW 14:23:34 10° SE daylight
05 Aug - 07:52:27 10° SSW 08:10:38 27° SSE 08:23:49 10° E daylight
05 Aug - 10:19:06 10° SW 10:38:46 42° S 10:50:15 10° ESE daylight
05 Aug - 12:50:19 10° WSW 13:05:30 40° SSW 13:13:54 10° SE daylight
05 Aug - 15:22:46 10° WSW 15:29:40 18° SW 15:34:33 10° S daylight
06 Aug - 06:42:14 10° S 06:57:36 20° SE 07:10:09 10° ESE daylight
06 Aug - 09:05:12 10° SW 09:25:51 38° SSE 09:39:04 10° E daylight
06 Aug - 11:35:15 10° WSW 11:53:36 44° S 12:03:45 10° ESE daylight
06 Aug - 14:07:28 10° W 14:19:04 29° SSW 14:26:02 10° SSE daylight
07 Aug - 05:36:11 10° SSE 05:44:48 13° SE 05:52:46 10° ESE daylight
07 Aug - 07:52:24 10° SSW 08:12:40 33° SSE 08:27:10 10° E daylight
07 Aug - 10:20:22 10° WSW 10:41:05 45° S 10:53:08 10° ESE daylight
07 Aug - 12:52:15 10° W 13:07:51 39° SSW 13:16:34 10° SE daylight
07 Aug - 15:25:47 10° WSW 15:31:44 15° SW 15:36:12 10° SSW daylight
08 Aug - 06:41:11 10° S 06:59:26 26° SE 07:14:07 10° E daylight
08 Aug - 09:06:06 10° SW 09:28:02 43° SSE 09:42:01 10° E daylight
08 Aug - 11:36:57 10° WSW 11:55:57 45° S 12:06:29 10° ESE daylight
08 Aug - 14:09:46 10° W 14:21:14 26° SW 14:28:20 10° SSE daylight
09 Aug - 05:32:29 10° SSE 05:46:26 18° SE 05:58:58 10° E daylight
09 Aug - 07:52:50 10° SSW 08:14:39 38° SSE 08:30:14 10° E daylight
09 Aug - 10:21:49 10° WSW 10:43:21 48° S 10:55:56 10° ESE daylight
09 Aug - 12:54:14 10° W 13:10:05 37° SSW 13:19:06 10° SE daylight
09 Aug - 15:29:25 10° WSW 15:33:40 12° SW 15:37:09 10° SSW daylight
10 Aug - 06:40:57 10° SSW 07:01:12 31° SE 07:17:32 10° E daylight
10 Aug - 09:07:16 10° SW 09:30:10 47° S 09:44:50 10° ESE daylight
10 Aug - 11:38:43 10° WSW 11:58:12 45° SSW 12:09:09 10° SE daylight
10 Aug - 14:12:12 10° W 14:23:15 24° SW 14:30:23 10° S daylight
11 Aug - 05:30:58 10° S 05:48:00 23° SE 06:03:20 10° E daylight
11 Aug - 07:53:39 10° SW 08:16:36 43° SSE 08:33:07 10° E daylight
11 Aug - 10:23:25 10° WSW 10:45:34 50° S 10:58:38 10° ESE daylight
11 Aug - 12:56:17 10° W 13:12:12 35° SSW 13:21:29 10° SSE daylight
12 Aug - 04:24:30 10° SSE 04:35:17 14° SE 04:45:48 10° ESE visible
12 Aug - 06:41:18 10° SSW 07:02:56 36° SSE 07:20:36 10° E daylight
12 Aug - 09:08:39 10° WSW 09:32:16 50° S 09:47:33 10° ESE daylight
12 Aug - 11:40:34 10° W 12:00:21 44° SSW 12:11:41 10° SE daylight
12 Aug - 14:14:50 10° W 14:25:07 20° SW 14:32:07 10° S daylight
13 Aug - 05:30:31 10° S 05:49:31 28° SE 06:06:53 10° E daylight
13 Aug - 07:54:47 10° SW 08:18:31 47° SSE 08:35:53 10° E daylight
13 Aug - 10:25:07 10° WSW 10:47:43 50° S 11:01:15 10° ESE daylight
13 Aug - 12:58:25 10° W 13:14:10 32° SW 13:23:42 10° SSE daylight
